Regional Weather Roundup
Issued by NWS Upton, NY

Current Version | Previous Version | Text Only | Print | Product List | Glossary On
Versions: 1 2 3 4 5 6 7 8 9 10 11 12 13 14 15 16 17 18 19 20 21 22 23 24 25 26 27 28 29 30 31 32 33 34 35 36 37 38 39 40 41 42 43 44 45 46 47 48 49 50
000
ASUS41 KOKX 172109
RWROKX

Regional Weather Roundup
National Weather Service New York NY
400 PM EST WED JAN 17 2018

Note: "FAIR" indicates few or no clouds below 12,000 feet with no
significant weather and/or obstructions to visibility.

NYZ071-072-176-178-NJZ106-104-172200-
New York City Metro Area

CITY           SKY/WX    TMP DP  RH WIND       PRES   REMARKS
Central Park   CLOUDY    31  24  75 W7G17     30.20R WCI  24
Bronx Bot Gard   N/A     32  27  80 N1        30.18R
Bronx Lehman C   N/A     32  27  80 NW12        N/A  WCI  23
LaGuardia Arpt CLOUDY    33  28  81 NW15      30.18R WCI  23
Queens College   N/A     34  30  86 NW9         N/A  WCI  26
Kennedy Intl   CLOUDY    34  31  88 NW12      30.19R WCI  25
Breezy Point     N/A    N/A N/A N/A NW10G18     N/A
Brooklyn Coll    N/A     32  27  80 NW14        N/A  WCI  22
Staten Island    N/A     32  27  80 NW8         N/A  WCI  25
Newark/Liberty CLOUDY    31  23  72 NW12      30.20R WCI  22
Teterboro      CLOUDY    30  22  72 NW17G26   30.19R WCI  18
$$

NYZ177-179-078>081-172200-
Long Island New York

CITY           SKY/WX    TMP DP  RH WIND       PRES   REMARKS
Jones Beach      N/A     34 N/A N/A NW13        N/A  WCI  25
Wantagh          N/A     34  32  93 NW7         N/A  WCI  28
Matinecock Pt    N/A     34 N/A N/A W12         N/A  WCI  25
Farmingdale    CLOUDY    33  30  88 NW8       30.16S WCI  26
MacArthur/ISP  DRIZZLE   34  33  96 NW10      30.14S FOG     WCI  26
Shirley        CLOUDY    35  35 100 NW8       30.14F WCI  29
Mt Sinai Harb    N/A    N/A N/A N/A W6          N/A
Westhampton    CLOUDY    34  32  92 NW8       30.14F WCI  27
East Hampton   DRIZZLE   33  32  97 NW3       30.12F
Southold         N/A     34  32  93 N6          N/A  WCI  29
Montauk          N/A     38  35  89 NW7       30.12F WCI  33
$$

NYZ052-065-067-172200-
Hudson Valley

CITY           SKY/WX    TMP DP  RH WIND       PRES   REMARKS
White Plains   MOCLDY    29  25  85 NW18      30.15R WCI  16
Larchmont Harb   N/A     32 N/A N/A W10         N/A  WCI  24
Croton On Huds   N/A    N/A N/A N/A NW13        N/A
Somers           N/A     28  27  93 NW6         N/A  WCI  22
Brewster         N/A     32  28  86 NW6         N/A  WCI  26
Newburgh       CLOUDY    25  21  86 W12       30.19R WCI  14
Montgomery     CLOUDY    26  17  68 W7        30.18R WCI  18
Otisville        N/A     23  16  74 S5          N/A  WCI  17
Warwick          N/A     27  18  69 W14         N/A  WCI  15
Suffern          N/A     27  21  80 W9          N/A  WCI  17
Poughkeepsie   CLOUDY    30  24  78 N6        30.19R WCI  24
Albany         LGT SNOW  22  13  68 W8        30.23S WCI  12
$$

NJZ001-105-106-008-010-013-015-019>022-104-172200-
New Jersey

CITY           SKY/WX    TMP DP  RH WIND       PRES   REMARKS
Newark/Liberty CLOUDY    31  23  72 NW12      30.20R WCI  22
Teterboro      CLOUDY    30  22  72 NW17G26   30.19R WCI  18
Caldwell       CLOUDY    28  22  78 NW7       30.21R WCI  21
Somerville     FAIR      27  20  75 NW10      30.21R WCI  17
Linden         MOCLDY    31  25  78 NW15G21   30.21R WCI  20
Perth Amboy      N/A    N/A N/A N/A NW16        N/A
Sussex         CLOUDY    25  16  68 VRB7      30.21R WCI  17
Andover        NOT AVBL
Trenton        FAIR      27  18  69 NW9       30.21F WCI  18
Millville      CLOUDY    26  18  71 NW10      30.24F WCI  16
Atlantic City  MOCLDY    29  25  85 NW12      30.20F WCI  19
Wrightstown    FAIR      27  21  78 NW9       30.18F WCI  18
Toms River     CLOUDY    28  25  88 NW15      30.20F WCI  16
Belmar         CLOUDY    29  26  89 W15       30.19  WCI  18
$$

PAZ047>061-062-071-172200-
Eastern Pennsylvania

CITY           SKY/WX    TMP DP  RH WIND       PRES   REMARKS
Philadelphia   CLOUDY    26  11  52 NW14      30.25F WCI  14
Allentown      FAIR      25  10  53 NW15      30.24S WCI  13
Scranton       FAIR      19   8  62 N10       30.24S WCI   7
$$

CTZ002-004>006-009-010-012-RIZ004-006-007-MAZ004-011-015-172200-
Southern New England

 In CT

CITY           SKY/WX    TMP DP  RH WIND       PRES   REMARKS
Bradley Intl   FLURRIES  32  31  96 CALM      30.14S
Hartford       LGT SNOW  33  31  92 N5        30.14F FOG     WCI  29
Danbury        CLOUDY    32  28  85 NW7       30.16R WCI  26
Wtrbury/Oxford LGT SNOW  31  30  96 NW5       30.12S FOG     WCI  26
Norwalk Harbor   N/A     32 N/A N/A W10         N/A  WCI  24
Bridgeport     LGT SNOW  34  31  88 NW9       30.15R FOG     WCI  27
Meriden        LGT SNOW  33  31  92 CALM      30.14S FOG
New Haven      LGT SNOW  34  33  96 CALM      30.14S FOG
Chester        CLOUDY    34  32  93 VRB6      30.11F FOG     WCI  29
Groton         CLOUDY    36  34  92 NW6       30.12S FOG     WCI  31
Willimantic    LGT SNOW  34  32  92 CALM      30.13S FOG

 In RI

CITY           SKY/WX    TMP DP  RH WIND       PRES   REMARKS
Providence     CLOUDY    35  34  96 NW7       30.12F FOG     WCI  29
Block Island   CLOUDY    36  36 100 N3        30.11F FOG
Westerly       CLOUDY    38  37  97 NW3       30.12S FOG

In MA

CITY           SKY/WX    TMP DP  RH WIND       PRES   REMARKS
Boston         LGT SNOW  33  31  92 N7        30.13S FOG     WCI  27
Worcester      LGT SNOW  30  27  88 N3        30.09R VSB 1
Westfield      CLOUDY    31  30  96 CALM      30.13S
Provincetown   CLOUDY    37  36  96 N7        30.10  WCI  32
Nantucket      CLOUDY    38  38 100 N9        30.08R FOG     WCI  31
$$

ANZ330-335-338-340-345-350-353-355-172200-
Coastal Marine Observations


STATION/POSITION TIME  SKY/WX   TEMP    WIND        PRES    VSBY  WAVE
                                AIR SEA DIR/SP/G                  HT/PER
                 (UTC)          (F)     (DEG/KT/KT) (MB)    (MI)  (FT/S)
NY Harb Entrance 1950            35 42  300/ 16/ 17 1021.2          4/ 9
20 S Fire Island 1950            35 41  320/ 17/ 19 1020.9          6/ 7
15 E Barnegat Li 2030               43                N/A           5/11
Hudson Canyon    1950            42 50  310/ 17/ 21 1019.9          6/10
Kings Point      2048            33 32  350/  9/ 11 1022.7
Execution Rocks  NOT AVBL
Western LI Sound NOT AVBL
Central LI Sound 2030            34     320/  6/  6   N/A           1
Robbins Reef     2048            30     300/ 16/ 18 1022.8
$$


>>>>>>>>>>>>>>>>>>>>>>>>>>>> KEY <<<<<<<<<<<<<<<<<<<<<<<<<<<
>                                                          <
>     SKY/WX - Sky Condition/Present Weather               <
>     TMP    - Temperature in Fahrenheit                   <
>     DP     - Dew Point in Fahrenheit                     <
>     RH     - Relative Humidity in Percent                <
>     WIND   - Direction (from) and Speed in MPH           <
>     PRES   - Mean Sea Level Pressure (inches of Hg)      <
>     WCI    - Wind Chill Index                            <
>     VSB    - Visibility in Miles                         <
>     HX     - Heat Index                                  <
>     TC     - Temperature in Celsius                      <
>     VRB    - Varibale Wind Direction                     <
>                                                          <
>>>>>>>>>>>>>>>>>>>>>>>>>>>> KEY <<<<<<<<<<<<<<<<<<<<<<<<<<<



USA.gov is the U.S. government's official web portal to all federal, state and local government web resources and services.